www.pogodaiklimat.ru
Время
(UTC), дата
09 15.10
12 15.10
15 15.10
18 15.10
21 15.10
00 16.10
03 16.10
06 16.10
09 16.10
12 16.10
15 16.10
18 16.10
21 16.10
00 17.10
03 17.10
06 17.10
09 17.10
12 17.10
15 17.10
18 17.10
21 17.10
00 18.10
03 18.10
06 18.10
09 18.10
12 18.10
15 18.10
18 18.10
21 18.10
00 19.10
03 19.10
06 19.10
09 19.10
12 19.10
15 19.10
18 19.10
21 19.10
00 20.10
03 20.10
06 20.10
09 20.10
12 20.10
15 20.10
18 20.10
21 20.10
00 21.10
03 21.10
06 21.10
09 21.10
12 21.10
15 21.10
18 21.10
21 21.10
00 22.10
03 22.10
06 22.10
Ветер
(напр.,м/с)
Видим. Явления Облачность Т
(С)
Тd
(С)
f
(%)
Тe
(С)
Тes
(С)
Комфортность P
(гПа)
Po
(гПа)
Тmin
(С)
Tmax
(С)
R
(мм)
R24
(мм)
S
(см)
З 2 50 км 10/8 800 м
[Sc As op]
+0.2 -0.9 92 -4 -4 прохладно 1018.7 990.0
штиль 0 50 км в посл. час снег 10/8 600 м
[Sc As op]
-1.0 -1.4 97 -2 -2 по сезону 1018.6 989.7 +1.0 0.0
нст 1 50 км {снег} 10/8 600 м
[Sc As op]
-1.2 -1.6 97 -4 -4 прохладно 1018.2 988.6
нст 1 50 км слаб. снег 10/8 600 м
[Sc Ac trans Cs]
-1.4 -1.9 96 -4 -4 прохладно 1016.8 987.9
штиль 0 10 км слаб. ливневой снег 10/8 600 м
[Cb cap Ac trans Cs]
-1.5 -1.7 99 -3 -3 прохладно 1015.9 987.1
штиль 0 50 км {ливн. осадки, снег} 10/6 600 м
[Sc Ac trans]
-0.6 -0.9 98 -2 -2 по сезону 1015.9 987.2 -1.5 0.1 12
штиль 0 50 км 10/4 600 м
[Sc Ac trans Ci fib]
+1.7 +0.1 89 +1 +1 по сезону 1014.4 986.1
штиль 0 50 км 10/3 600 м
[Sc Ac trans Ci fib]
+6.4 +1.1 69 +6 +6 тепло 1012.9 985.0
штиль 0 50 км 10/3 600 м
[Sc Ac trans Ci fib]
+4.6 +1.6 81 +4 +4 по сезону 1012.0 983.9
З 2 50 км 10/0
[Ac trans Ci fib]
+1.4 +0.3 92 -2 -2 по сезону 1013.0 984.4 +6.9
З 2 50 км 10/0
[Ac trans Cs]
+2.8 +1.0 88 -0 -0 по сезону 1012.9 984.6
штиль 0 50 км 8/0
[Ac trans Ci fib]
+0.5 -0.3 94 -1 -1 по сезону 1013.2 984.6
СВ 1 50 км 8/0
[Ac trans Ci fib]
-0.9 -1.0 99 -3 -3 прохладно 1012.3 983.5
В 3 4000 м дымка 10/0
[Ac trans Ci fib]
-1.8 -2.1 98 -7 -7 холодно 1011.6 982.8 -2.6 8
В 1 50 км 10/0
[Ac trans Ci sp]
+3.0 +0.1 81 +2 +3 по сезону 1010.0 981.8
З 3 50 км 10/0
[Ci sp]
+6.3 +0.1 64 +4 +4 по сезону 1008.5 980.7
З 2 50 км 10/0
[Ci fib]
+3.4 -0.4 76 +1 +1 по сезону 1009.2 981.2
штиль 0 50 км 10/0
[Ci fib]
+0.8 -0.9 88 -0 -0 по сезону 1010.6 982.2 +7.7
В 2 50 км 10/0
[Ci fib]
-1.6 -2.4 94 -6 -6 холодно 1010.8 982.2
СВ 2 50 км 10/0
[Ci fib]
-3.3 -3.4 99 -8 -8 очень
холодно
1010.4 981.6
СВ 2 50 км 10/0
[Ci fib]
-4.7 -5.0 98 -9 -9 очень
холодно
1009.7 980.6
СВ 2 4000 м дымка 10/0
[Ac trans Ci fib]
-6.0 -6.4 97 -11 -10 очень
холодно
1009.0 979.9 -5.5 8
штиль 0 50 км 10/0
[Ci fib]
-0.1 -0.4 98 -2 +1 по сезону 1008.1 979.7
З 3 50 км 10/0
[Ci fib]
+7.5 -1.5 53 +5 +6 тепло 1007.3 979.5
штиль 0 50 км 10/0
[Ac trans Ci fib]
+3.3 -1.7 70 +3 +3 по сезону 1008.4 980.2
СВ 2 50 км 10/0
[Ci fib]
-0.2 -2.6 84 -4 -4 прохладно 1008.7 980.3 +7.9
В 3 50 км 10/0
[Ci fib]
-1.6 -2.8 92 -7 -7 холодно 1008.2 979.6
В 2 50 км 10/0
[Ac trans Cs]
-3.7 -3.9 99 -8 -8 очень
холодно
1007.7 978.9
штиль 0 50 км 10/0
[Cs]
-5.1 -5.4 98 -6 -6 холодно 1008.9 979.8
З 2 50 км 10/0
[Ac trans Cs]
-5.0 -5.3 98 -9 -9 очень
холодно
1011.6 982.5 -5.5 8
З 4 50 км 10/4 1000 м
[Sc Ac trans Ci fib]
+5.3 -0.8 65 +2 +2 по сезону 1012.9 984.8
З 4 50 км 10/4 600 м
[Sc Ac trans Ci fib]
+6.4 -0.7 60 +3 +3 по сезону 1013.9 986.0
ЮЗ 1 50 км 10/0
[Ac trans Cs]
+2.5 -2.1 72 +1 +1 по сезону 1015.1 986.8
З 1 50 км 10/0
[Ac trans Ci fib]
-1.9 -3.4 89 -4 -4 прохладно 1016.4 987.6 +7.0
штиль 0 50 км 10/0
[Ac trans Ci fib]
-2.9 -3.6 95 -4 -4 прохладно 1016.4 987.4
В 2 50 км 10/0
[Ac trans Ci fib]
-2.5 -3.4 94 -7 -7 холодно 1016.3 987.3
СВ 2 50 км 10/0
[Ac trans Cs]
-3.8 -4.3 96 -8 -8 очень
холодно
1015.2 986.2
СВ 4 20 км 10/0
[Ac trans Ci fib]
-1.8 -2.9 92 -8 -8 очень
холодно
1013.4 984.6 -4.0 7
СВ 5 50 км 10/0
[Ac trans Ci fib]
+2.8 -2.7 67 -2 -2 по сезону 1010.6 982.4
СВ 4 50 км 10/0
[Ac trans Ci fib]
+5.7 -2.3 56 +2 +3 по сезону 1008.5 980.7
СВ 4 50 км 10/0
[Ac trans Ci fib]
+3.9 -2.6 63 -0 -0 по сезону 1008.4 980.4
СВ 4 50 км 10/0
[Ac trans Ci fib]
+2.0 -3.0 69 -3 -3 прохладно 1008.0 979.8 +6.1
СВ 4 50 км 10/0
[Ac trans Ci fib]
+1.4 -2.1 77 -4 -4 прохладно 1007.8 979.4
СВ 3 50 км 10/0
[Ac trans Cs]
-0.4 -2.8 84 -5 -5 холодно 1008.4 980.0
С 2 50 км 10/0
[Ac trans Cs]
-1.3 -3.0 88 -5 -5 холодно 1009.0 983.4
СЗ 2 50 км 10/3 600 м
[Sc Ac trans Ci fib]
-2.3 -3.6 91 -6 -6 холодно 1010.4 981.8 -2.3 7
СЗ 4 50 км 10/5 600 м
[Sc As op]
-0.6 -3.0 84 -6 -6 холодно 1012.2 983.4
СЗ 3 50 км 10/5 600 м
[Sc As op]
-0.2 -2.9 82 -5 -5 холодно 1013.3 984.7
СЗ 2 50 км слаб. ливневой снег 10/5 300 м
[Cb cap Ac trans]
-0.6 -2.4 88 -4 -4 прохладно 1015.3 986.5
СЗ 2 10 км слаб. ливневой снег 10/6 300 м
[Cb cap Ac trans]
-1.2 -3.2 86 -5 -5 холодно 1016.9 988.0 +0.9 0.2
СЗ 3 10 км слаб. ливневой снег 10/10 300 м
[Cb cap]
-1.5 -2.6 92 -7 -7 холодно 1017.6 988.7
СЗ 4 20 км {ливн. осадки} 10/8 300 м
[Cb cap Ac und]
-1.8 -3.3 89 -8 -8 очень
холодно
1018.2 989.3
С 3 20 км в посл. час ливневой снег 10/8 300 м
[Cb cap Ac trans]
-2.3 -3.2 94 -8 -8 очень
холодно
1019.8 990.9
С 4 50 км {ливн. осадки} 10/8 300 м
[Cb cap Ac trans]
-3.0 -4.3 91 -9 -9 очень
холодно
1022.4 993.1 -3.4 0.0 7
СЗ 3 50 км 10/8 600 м
[Sc Ac trans]
-3.1 -5.5 83 -8 -8 очень
холодно
1024.1 994.8
СЗ 3 50 км 10/8 600 м
[Sc Ac trans]
-3.3 -5.7 83 -9 -8 очень
холодно
1025.0 995.7
Местоположение метеостанции Олекминск (Якутия, Россия): широта 60.40 долгота 120.40 высота над уровнем моря 230 м.
В архиве по умолчанию представлена погода в Олекминске за последнюю неделю. Архивные данные за месяц целиком и за предыдущие месяцы, начиная с января 2011 года, Вы можете получить, выбрав интересующий диапазон дат из раскрывающегося списка и нажав кнопку "Найти!".
*Определитесь, кто Вы:
Внимание! Время в таблицах - всемирное. Для получения местного времени необходимо прибавить поправку, которая равна 9 ч.
Смотрите также архив погоды в соседних городах и на ближайших метеорологических станциях:
Партнеры нашего сайта:      
Пояснения к столбцам:
  • Ветер - указаны скорость ветра в м/с - средняя за 10 мин, порывы в срок и между сроками (в фигурных скобках) и направление, откуда дует ветер: С - северный,
  • СВ - северо-восточный, В - восточный, ЮВ - юго-восточный, Ю - южный, ЮЗ - юго-западный, З - западный, СЗ - северо-западный.
  • Видимость - горизонтальная дальность видимости в метрах или километрах. При видимости от 1 до 10 км при отсутствии осадков обычно наблюдается дымка, при ухудшении видимости до 1 км и менее - туман. В сухую погоду видимость может ухудшаться дымом, пылью или мглою.
  • Явления - указаны атмосферные явления, наблюдавшиеся в срок или в последний час перед сроком; фигурными скобками обозначены явления, наблюдавшиеся между сроками (за 1-3 часа до срока); квадратными скобками обозначены град или гололедные отложения с указанием их диаметра в мм.
  • Облачность - указаны через наклонную черту общая и нижняя облачность в баллах и высота нижней границы облаков в метрах; квадратными скобками обозначены формы облаков: Ci - перистые, Cs - перисто-слоистые, Cc - перисто-кучевые, Ac - высококучевые, As - высокослоистые, Sc - слоисто-кучевые, Ns - слоисто-дождевые, Cu - кучевые, Cb - кучево-дождевые. Подробнее классификацию облаков см. в Атласе облаков (PDF).
  • T - Температура воздуха - температура, измеренная на высоте 2 м над землей.
  • Td - Температура точки росы - температура, при понижении до которой содержащийся в воздухе водяной пар достигнет насыщения.
  • f - Относительная влажность воздуха - влажноcть воздуха, измеренная на высоте 2 м над землей.
  • Te - Эффективная температура - температура, которую ощущает одетый по сезону человек в тени. Характеристика душности погоды. При расчете учитывается влияние влажности воздуха и скорости ветра на теплоощущения человека.
  • Tes - Эффективная температура на солнце - температура, которую ощущает человек, с поправкой на солнечный нагрев. Характеристика знойности погоды. Зависит от высоты солнца над горизонтом, облачности и скорости ветра. Ночью, в пасмурную погоду, а также при ветре 12 м/с и более поправка равна нулю.
  • P - Атмосферное давление - приведенное к уровню моря атмосферное давление.
  • Po - Атмосферное давление - измеренное на уровне метеостанции атмосферное давление.
  • Tmin - Минимальная температура - минимум температуры воздуха на высоте 2 м над землей.
  • Tmax - Максимальная температура - максимум температуры воздуха на высоте 2 м над землей.
  • R - Количество осадков - Количество выпавших осадков за период времени, мм. При наведении курсора мыши на число - период времени, за который выпало указанное количество осадков.
  • R24 - Количество осадков - Количество выпавших осадков за 24 часа, мм.
  • S - Снежный покров - Высота снежного покрова, см. При наведении курсора мыши на число - состояние снежного покрова и степень покрытия местности в баллах.